Hourly Weather Holoholenka

Today, 16 April, Friday

Time Temperature Precipitation Wind Pressure Humidity
00:00 +4°C° 0 mm 4 mps 750 mmHg 80%
01:00 +4°C° 0 mm 4 mps 749 mmHg 81%
02:00 +3°C° 0 mm 4 mps 749 mmHg 83%
03:00 +3°C° 0 mm 4 mps 749 mmHg 84%
04:00 +3°C° 0 mm 4 mps 750 mmHg 85%
05:00 +3°C° 0 mm 4 mps 750 mmHg 86%
06:00 +3°C° 0 mm 4 mps 750 mmHg 83%
07:00 +4°C° 0 mm 4 mps 750 mmHg 81%
08:00 +5°C° 0 mm 5 mps 750 mmHg 77%
09:00 +6°C° 0 mm 5 mps 750 mmHg 74%
10:00 +8°C° 0 mm 5 mps 750 mmHg 70%
11:00 +9°C° 0 mm 5 mps 751 mmHg 66%
12:00 +9°C° 0 mm 5 mps 751 mmHg 65%
13:00 +10°C° 0 mm 5 mps 751 mmHg 64%
14:00 +10°C° 0 mm 5 mps 751 mmHg 63%
15:00 +10°C° 0 mm 5 mps 751 mmHg 64%
16:00 +10°C° 0 mm 5 mps 750 mmHg 64%
17:00 +10°C° 0 mm 5 mps 750 mmHg 65%
18:00 +9°C° 0 mm 5 mps 750 mmHg 66%
19:00 +8°C° 0 mm 5 mps 751 mmHg 67%
20:00 +7°C° 0 mm 5 mps 751 mmHg 68%
21:00 +6°C° 0 mm 4 mps 751 mmHg 68%
22:00 +6°C° 0 mm 4 mps 751 mmHg 68%
23:00 +5°C° 0 mm 4 mps 751 mmHg 69%

Tomorrow, 17 April, Saturday

Time Temperature Precipitation Wind Pressure Humidity
00:00 +5°C° 0 mm 4 mps 751 mmHg 71%
01:00 +4°C° 0 mm 4 mps 751 mmHg 73%
02:00 +4°C° 0 mm 4 mps 751 mmHg 75%
03:00 +4°C° 0 mm 4 mps 751 mmHg 77%
04:00 +3°C° 0 mm 4 mps 751 mmHg 79%
05:00 +3°C° 0 mm 4 mps 751 mmHg 81%
06:00 +4°C° 0 mm 4 mps 752 mmHg 78%
07:00 +5°C° 0 mm 4 mps 752 mmHg 74%
08:00 +6°C° 0 mm 4 mps 752 mmHg 71%
09:00 +8°C° 0 mm 4 mps 752 mmHg 67%
10:00 +9°C° 0 mm 5 mps 752 mmHg 62%
11:00 +12°C° 0 mm 5 mps 752 mmHg 58%
12:00 +12°C° 0 mm 5 mps 752 mmHg 56%
13:00 +13°C° 0 mm 5 mps 752 mmHg 53%
14:00 +14°C° 0 mm 5 mps 752 mmHg 51%
15:00 +13°C° 0 mm 5 mps 751 mmHg 51%
16:00 +13°C° 0 mm 5 mps 751 mmHg 51%
17:00 +12°C° 0 mm 5 mps 751 mmHg 52%
18:00 +11°C° 0 mm 4 mps 751 mmHg 53%
19:00 +8°C° 0 mm 4 mps 751 mmHg 55%
20:00 +7°C° 0 mm 4 mps 752 mmHg 57%
21:00 +6°C° 0 mm 4 mps 752 mmHg 59%
22:00 +6°C° 0 mm 4 mps 752 mmHg 62%
23:00 +5°C° 0 mm 4 mps 752 mmHg 64%

Day after tomorrow, 18 April, Sunday

Time Temperature Precipitation Wind Pressure Humidity
00:00 +4°C° 0 mm 4 mps 752 mmHg 68%
01:00 +4°C° 0 mm 4 mps 752 mmHg 71%
02:00 +3°C° 0 mm 4 mps 752 mmHg 74%
03:00 +3°C° 0 mm 4 mps 751 mmHg 76%
04:00 +3°C° 0 mm 4 mps 751 mmHg 78%
05:00 +2°C° 0 mm 3 mps 751 mmHg 79%
06:00 +4°C° 0 mm 4 mps 751 mmHg 73%
07:00 +5°C° 0 mm 4 mps 751 mmHg 66%
08:00 +6°C° 0 mm 5 mps 752 mmHg 59%
09:00 +8°C° 0 mm 5 mps 751 mmHg 53%
10:00 +9°C° 0 mm 5 mps 751 mmHg 48%
11:00 +10°C° 0 mm 5 mps 751 mmHg 43%
12:00 +12°C° 0 mm 5 mps 751 mmHg 41%
13:00 +12°C° 0 mm 5 mps 751 mmHg 40%
14:00 +13°C° 0 mm 5 mps 751 mmHg 38%
15:00 +12°C° 0 mm 5 mps 751 mmHg 41%
16:00 +12°C° 0 mm 5 mps 751 mmHg 44%
17:00 +12°C° 0 mm 4 mps 751 mmHg 47%
18:00 +10°C° 0 mm 4 mps 752 mmHg 52%
19:00 +8°C° 0 mm 4 mps 752 mmHg 58%
20:00 +7°C° 0 mm 3 mps 752 mmHg 64%
21:00 +7°C° 0 mm 3 mps 752 mmHg 67%
22:00 +5°C° 0 mm 3 mps 752 mmHg 71%
23:00 +5°C° 0 mm 3 mps 752 mmHg 74%

19 April, Monday

Time Temperature Precipitation Wind Pressure Humidity
00:00 +4°C° 0 mm 3 mps 752 mmHg 77%
01:00 +4°C° 0 mm 4 mps 752 mmHg 80%
02:00 +4°C° 0 mm 4 mps 753 mmHg 84%
03:00 +3°C° 0 mm 3 mps 753 mmHg 86%
04:00 +3°C° 0 mm 3 mps 753 mmHg 89%
05:00 +3°C° 0 mm 3 mps 753 mmHg 92%
06:00 +3°C° 0 mm 4 mps 753 mmHg 87%
07:00 +4°C° 0 mm 4 mps 753 mmHg 82%
08:00 +5°C° 0 mm 4 mps 753 mmHg 77%
09:00 +6°C° 0 mm 4 mps 753 mmHg 73%
10:00 +7°C° 0 mm 4 mps 753 mmHg 70%
11:00 +7°C° 0 mm 4 mps 753 mmHg 66%
12:00 +7°C° 0 mm 4 mps 753 mmHg 68%
13:00 +7°C° 0 mm 4 mps 752 mmHg 70%
14:00 +7°C° 0 mm 4 mps 752 mmHg 72%
15:00 +6°C° 0 mm 4 mps 752 mmHg 76%
16:00 +6°C° 0 mm 4 mps 752 mmHg 80%
17:00 +5°C° 0 mm 4 mps 752 mmHg 83%
18:00 +5°C° 0 mm 4 mps 752 mmHg 82%
19:00 +5°C° 0 mm 4 mps 752 mmHg 81%
20:00 +5°C° 0 mm 4 mps 751 mmHg 79%
21:00 +5°C° 0 mm 4 mps 751 mmHg 80%
22:00 +5°C° 0 mm 4 mps 751 mmHg 80%
23:00 +5°C° 0 mm 4 mps 751 mmHg 80%

20 April, Tuesday

Time Temperature Precipitation Wind Pressure Humidity
00:00 +5°C° 0 mm 4 mps 750 mmHg 78%
01:00 +5°C° 0 mm 4 mps 750 mmHg 76%
02:00 +5°C° 0 mm 4 mps 749 mmHg 74%
03:00 +4°C° 0 mm 4 mps 749 mmHg 72%
04:00 +3°C° 0 mm 4 mps 749 mmHg 70%
05:00 +2°C° 0 mm 5 mps 748 mmHg 69%
06:00 +2°C° 0 mm 5 mps 748 mmHg 67%
07:00 +3°C° 0 mm 5 mps 747 mmHg 65%
08:00 +5°C° 0 mm 5 mps 747 mmHg 63%
09:00 +6°C° 0 mm 5 mps 746 mmHg 61%
10:00 +5°C° 0 mm 6 mps 746 mmHg 60%
11:00 +7°C° 0 mm 6 mps 745 mmHg 58%
12:00 +7°C° 0 mm 6 mps 744 mmHg 60%
13:00 +7°C° 0 mm 6 mps 743 mmHg 62%
14:00 +6°C° 0 mm 7 mps 742 mmHg 64%
15:00 +5°C° 0.7 mm 7 mps 741 mmHg 70%
16:00 +5°C° 0.7 mm 7 mps 741 mmHg 77%
17:00 +4°C° 0.7 mm 7 mps 740 mmHg 83%
18:00 +4°C° 0.8 mm 8 mps 739 mmHg 85%
19:00 +4°C° 0.8 mm 8 mps 738 mmHg 87%
20:00 +4°C° 0.8 mm 8 mps 737 mmHg 89%
21:00 +4°C° 1 mm 7 mps 736 mmHg 89%
22:00 +4°C° 1 mm 7 mps 736 mmHg 90%
23:00 +4°C° 1 mm 7 mps 735 mmHg 90%

21 April, Wednesday

Time Temperature Precipitation Wind Pressure Humidity
00:00 +4°C° 0.2 mm 7 mps 735 mmHg 90%
01:00 +4°C° 0.2 mm 7 mps 734 mmHg 90%
02:00 +4°C° 0.2 mm 6 mps 734 mmHg 90%
03:00 +4°C° 0.1 mm 6 mps 733 mmHg 91%
04:00 +4°C° 0.1 mm 6 mps 733 mmHg 91%
05:00 +4°C° 0.1 mm 6 mps 733 mmHg 91%
06:00 +5°C° 0.4 mm 6 mps 732 mmHg 92%
07:00 +5°C° 0.4 mm 6 mps 732 mmHg 92%
08:00 +5°C° 0.4 mm 6 mps 732 mmHg 92%
09:00 +5°C° 0.3 mm 6 mps 732 mmHg 89%
10:00 +4°C° 0.3 mm 6 mps 732 mmHg 87%
11:00 +4°C° 0.3 mm 6 mps 733 mmHg 84%
12:00 +5°C° 0 mm 6 mps 733 mmHg 81%
13:00 +7°C° 0 mm 6 mps 734 mmHg 77%
14:00 +8°C° 0 mm 6 mps 734 mmHg 74%
15:00 +8°C° 0.2 mm 6 mps 734 mmHg 74%
16:00 +6°C° 0.2 mm 7 mps 734 mmHg 75%
17:00 +6°C° 0.2 mm 7 mps 734 mmHg 75%
18:00 +5°C° 0 mm 6 mps 735 mmHg 78%
19:00 +4°C° 0 mm 6 mps 735 mmHg 80%
20:00 +4°C° 0 mm 6 mps 736 mmHg 83%
21:00 +3°C° 0.1 mm 5 mps 736 mmHg 85%
22:00 +3°C° 0.1 mm 5 mps 737 mmHg 88%
23:00 +3°C° 0.1 mm 5 mps 737 mmHg 90%
Show more